[[[{"header":{"parameterUnit":"kt","parameterCategory":2,"dx":1,"dy":1,"la1":30.253999710083008,"la2":30.299108505249023,"lo1":-89.0895004272461,"lo2":-89.04439544677734,"nx":28,"ny":28,"refTime":"2022-10-13T21:00:00:Z","depth":"0","parameterNumber":2,"parameterNumberName":"U-component_of_CURRENTS"},"data":[0.6993,0.6898,0.6887,0.6673,0.6623,0.6343,0.6256,0.6139,0.626,0.639,0.6673,0.7064,0.7522,0.7669,0.7418,0.7265,0.6658,0.6441,0.6416,0.7156,0.7234,0.7309,0.7069,0.6548,0.6546,0.4945,0.4931,0.4921,0.7097,0.7067,0.709,0.7008,0.6926,0.7,0.6966,0.6836,0.6775,0.71,0.7292,0.7798,0.8021,0.836,0.8575,0.8331,0.7992,0.8055,0.7382,0.726,0.846,0.8253,0.7976,0.7976,0.7976,0.7977,0.7977,0.7978,0.7256,0.7237,0.7236,0.7237,0.7247,0.7197,0.7115,0.7226,0.7275,0.7378,0.7803,0.8055,0.8539,0.9281,0.9406,0.9338,0.9328,0.9075,0.8939,0.8646,0.8238,0.9504,0.9613,0.9617,0.9621,0.9624,0.9627,0,0.7321,0.7324,0.7373,0.7375,0.7386,0.742,0.7484,0.7501,0.7701,0.7818,0.8053,0.8275,0.8904,0.9175,0.9748,0.9947,0.9452,0.9974,0.9666,0.8751,0.8272,0.8034,0.9343,0.9487,0.9491,0.9494,0.9496,0.9498,0.7371,0.7386,0.7477,0.7492,0.7535,0.7596,0.7621,0.7781,0.7846,0.8127,0.8177,0.8557,0.8811,0.9414,0.9769,1.0187,0.9859,1.0052,0.9842,0.9473,0.9294,0.8935,0.8718,0.954,0.9534,0.953,0.9526,0,0.7392,0.746,0.7538,0.7661,0.7683,0.772,0.7837,0.7886,0.8036,0.8147,0.8207,0.8518,0.8869,0.9202,0.9623,0.9746,0.9769,1.0191,0.9794,0.976,0.9475,0.9302,0.902,0.8773,1.0339,1.034,1.0342,0,0.7463,0.7527,0.7622,0.7664,0.7724,0.7858,0.7921,0.8036,0.817,0.8252,0.8443,0.8571,0.8857,0.9133,0.9371,0.9702,0.9746,0.9854,0.9872,0.9533,0.95,0.9158,0.8958,0.9909,0.9907,0.9905,0.9903,0,0.7461,0.7613,0.7665,0.7729,0.7902,0.7931,0.8024,0.8164,0.824,0.8412,0.8468,0.8679,0.8794,0.9034,0.9334,0.9258,0.9702,0.9594,0.9773,0.9772,0.9444,0.9405,0.9345,0.99,0.9899,0.9898,0.9897,0,0.7533,0.7609,0.7685,0.7845,0.7884,0.7952,0.8103,0.8207,0.8356,0.8429,0.8541,0.8626,0.8821,0.8859,0.9178,0.9068,0.9258,0.9374,0.9386,0.9276,0.9194,0.9109,0.9335,0.8995,0.948,0.9476,0.9472,0,0.7524,0.7619,0.7705,0.7824,0.7903,0.8038,0.8124,0.8251,0.8356,0.8445,0.8562,0.8642,0.8702,0.8741,0.8887,0.9001,0.9176,0.9016,0.9152,0.9156,0.9122,0.9403,0.9047,0.9283,0.9421,0.9427,0.9431,0,0.7521,0.767,0.7683,0.7752,0.7936,0.8012,0.8116,0.8257,0.8309,0.8427,0.8494,0.8628,0.866,0.8654,0.8688,0.8804,0.9092,0.8782,0.8781,0.8904,0.9357,0.9335,0.9367,0.908,0.9085,0.909,0.939,0,0.7611,0.7673,0.7695,0.7825,0.7911,0.8003,0.8143,0.8212,0.8275,0.8336,0.8441,0.8466,0.847,0.8536,0.8513,0.8684,0.8661,0.8599,0.8466,0.8645,0.8751,0.8784,0.8323,0.8319,0.8315,0.8311,0,0,0.7604,0.767,0.7754,0.7821,0.79,0.8024,0.809,0.8154,0.8227,0.8246,0.8247,0.8275,0.8263,0.8324,0.8407,0.8376,0.8417,0.8283,0.8541,0.8567,0.8591,0.8702,0.8738,0.8304,0.8302,0.8301,0.83,0,0.7645,0.7703,0.7725,0.7823,0.7953,0.801,0.806,0.8142,0.8173,0.8219,0.8188,0.8242,0.8171,0.8184,0.8171,0.8312,0.8258,0.8313,0.8393,0.8504,0.8536,0.8563,0.8679,0.8715,0.829,0.829,0.8291,0,0.7687,0.7757,0.7773,0.7899,0.7937,0.8013,0.8023,0.8093,0.8157,0.8041,0.805,0.8048,0.7981,0.8009,0.8013,0.7929,0.8093,0.7984,0.8004,0.7969,0.8074,0.8111,0.8144,0.7726,0.7725,0.7724,0,0,0.7721,0.7756,0.7884,0.7914,0.7958,0.8013,0.8046,0.8077,0.8077,0.8063,0.8012,0.7951,0.7952,0.7915,0.7886,0.7873,0.7869,0.7923,0.7949,0.7972,0.7951,0.8061,0.8096,0.772,0.772,0.772,0,0,0.7721,0.7831,0.7864,0.7898,0.8003,0.8041,0.8045,0.8079,0.8045,0.8012,0.7923,0.79,0.794,0.7838,0.7797,0.7854,0.7736,0.7741,0.7923,0.7954,0.798,0.797,0.7677,0,0,0,0,0,0.7825,0.7832,0.7863,0.7884,0.794,0.804,0.8043,0.8047,0.8019,0.805,0.7979,0.7899,0.781,0.7769,0.7744,0.783,0.7665,0.7675,0.7684,0.792,0.7954,0.7983,0,0,0,0,0,0,0.7834,0.7855,0.7864,0.7907,0.7923,0.8034,0.7969,0.7966,0.8017,0.8013,0.7913,0.7894,0.7806,0.7773,0.7753,0.7838,0.7684,0.7669,0.7677,0.7685,0.7931,0.7959,0.7983,0,0,0,0,0,0.7841,0.7859,0.7954,0.7904,0.7917,0.7949,0.7966,0.7964,0.7978,0.7899,0.7882,0.7997,0.7807,0.7786,0.776,0.7852,0.7697,0.769,0.7675,0.7681,0.7687,0.7945,0,0,0,0,0,0,0.7847,0.7801,0.7956,0.7961,0.7911,0.7943,0.7946,0.7962,0.7854,0.7848,0.7972,0.7969,0.7808,0.7791,0.7775,0.7866,0.7707,0.77,0.7696,0.768,0.7685,0.7689,0,0,0,0,0,0,0.7795,0.7803,0.7956,0.7964,0.7968,0.7937,0.7941,0.7869,0.7848,0.7924,0.7925,0.7972,0.7823,0.7795,0.7782,0.7669,0.7716,0.7709,0.7704,0.7701,0.7684,0.7688,0,0,0,0,0,0,0.7798,0.7805,0.7961,0.7964,0.7967,0.7993,0.7865,0.7897,0.794,0.7922,0.7941,0.7941,0.7827,0.7814,0.7787,0.768,0.7671,0.7715,0.7711,0.7707,0.7705,0,0,0,0,0,0,0,0.7801,0.7756,0.7966,0.7963,0.7965,0.801,0.8007,0.8005,0.794,0.794,0.7941,0.7941,0.7755,0.7747,0.774,0.7688,0,0,0.7716,0.7713,0,0,0,0,0,0,0,0,0.7753,0.7755,0.7966,0.7969,0.7972,0.8009,0.8008,0.8006,0.794,0.794,0.7941,0.7941,0.7753,0.7747,0.774,0,0,0,0,0,0,0,0,0,0,0,0,0,0,0,0.7966,0.7969,0,0.8009,0.8008,0.8006,0.794,0.794,0.794,0.7941,0.7751,0.7746,0.7741,0,0,0,0,0,0,0,0,0,0,0,0,0,0,0,0,0,0,0,0,0,0,0,0,0,0,0,0,0,0,0,0,0,0,0,0,0,0,0,0,0,0,0,0,0,0,0,0,0,0,0,0,0,0,0,0,0,0,0,0,0,0,0,0,0,0,0,0,0]}],[{"header":{"parameterUnit":"kt","parameterCategory":2,"dx":1,"dy":1,"la1":30.253999710083008,"la2":30.299108505249023,"lo1":-89.0895004272461,"lo2":-89.04439544677734,"nx":28,"ny":28,"refTime":"2022-10-13T21:00:00:Z","depth":"0","parameterNumber":3,"parameterNumberName":"V-component_of_CURRENTS"},"data":[0.0573,0.0673,0.0757,0.1098,0.1279,0.1646,0.1908,0.2337,0.2775,0.3505,0.397,0.4262,0.3791,0.1367,-0.039,-0.0834,-0.1399,-0.1477,-0.1768,-0.1292,-0.1235,-0.118,-0.1307,-0.1743,-0.1745,-0.251,-0.2518,-0.2525,0.0551,0.0629,0.0764,0.0951,0.1166,0.124,0.1606,0.186,0.2359,0.2856,0.3234,0.3444,0.281,0.2049,0.0854,0.0048,-0.026,-0.0424,-0.0636,-0.071,0.0128,0.0053,-0.0101,-0.01,-0.01,-0.01,-0.0099,-0.0099,0.0516,0.0579,0.0664,0.0799,0.095,0.12,0.1384,0.1627,0.1976,0.2434,0.2538,0.2951,0.2575,0.21,0.1604,0.0659,0.0711,0.037,0.0189,0.0109,-0.0099,0.0724,0.0857,0.0857,0.0856,0.0856,0.0856,0,0.0448,0.0481,0.0547,0.0682,0.079,0.093,0.1082,0.1251,0.1408,0.1662,0.2046,0.223,0.2146,0.2052,0.1654,0.1411,0.0704,0.0991,0.0541,0.0222,-0.0026,-0.0223,0.0668,0.093,0.093,0.093,0.093,0.093,0.0325,0.0398,0.0484,0.0545,0.0567,0.0676,0.0783,0.0849,0.0997,0.1266,0.145,0.1592,0.1792,0.1734,0.1448,0.1238,0.0891,0.1006,0.0865,0.0333,0.0064,-0.0083,-0.0218,0.0931,0.0931,0.0931,0.0931,0,0.0248,0.0253,0.0353,0.0412,0.0444,0.0538,0.0627,0.0755,0.0824,0.1066,0.1123,0.125,0.1348,0.1232,0.1273,0.1073,0.0839,0.0982,0.0914,0.086,0.0282,0.007,0.0039,-0.011,0.0875,0.0875,0.0874,0,0.0096,0.0169,0.0174,0.0225,0.0369,0.0338,0.0499,0.054,0.0665,0.0833,0.0776,0.0973,0.0915,0.0992,0.0868,0.0847,0.0973,0.0705,0.0658,0.0653,0.0634,0.0252,0.0028,0.087,0.087,0.0869,0.0868,0,-0.0041,-0.0009,0.009,0.0093,0.0127,0.0203,0.0228,0.0308,0.0389,0.0507,0.0602,0.0692,0.078,0.0794,0.0703,0.0616,0.0844,0.0708,0.0592,0.0576,0.06,0.0575,0.0469,0.0868,0.0867,0.0867,0.0867,0,-0.0204,-0.0182,-0.0077,-0.0041,-0.0026,0.002,0.0143,0.0182,0.0283,0.0297,0.0379,0.0347,0.048,0.0346,0.0476,0.0394,0.0358,0.0338,0.034,0.0231,0.0036,0.011,0.0384,-0.0054,0.022,0.0216,0.0212,0,-0.0325,-0.026,-0.0319,-0.0232,-0.02,-0.0248,-0.0173,-0.0136,-0.0134,-0.0034,-0.002,0.004,-0.0096,-0.0062,0.0038,0.0028,0.0126,-0.0005,0.0059,0.006,-0.0049,0.0221,0.0239,0.0319,0.0161,0.0166,0.017,0,-0.0436,-0.0486,-0.0478,-0.0463,-0.0509,-0.0487,-0.0424,-0.0378,-0.0302,-0.0332,-0.02,-0.0205,-0.0229,-0.0225,-0.0279,-0.0173,0.0019,-0.0267,-0.0266,-0.0259,0.0243,0.0151,0.0176,0.0028,0.0037,0.0043,0.0129,0,-0.0576,-0.0581,-0.0564,-0.0595,-0.0598,-0.0572,-0.0618,-0.0593,-0.063,-0.0652,-0.0563,-0.0612,-0.0574,-0.0584,-0.0653,-0.0447,-0.0528,-0.0568,-0.0649,-0.0451,-0.0455,-0.0422,-0.0868,-0.0872,-0.0875,-0.0877,0,0,-0.0677,-0.0681,-0.0772,-0.0762,-0.0765,-0.0857,-0.0812,-0.0834,-0.0882,-0.085,-0.0929,-0.0892,-0.0951,-0.0831,-0.0785,-0.0833,-0.0813,-0.0856,-0.0572,-0.0539,-0.0507,-0.0498,-0.0463,-0.0883,-0.0884,-0.0885,-0.0886,0,-0.0736,-0.0804,-0.0787,-0.0817,-0.0863,-0.0903,-0.0895,-0.0958,-0.0975,-0.0964,-0.1032,-0.1003,-0.1061,-0.1039,-0.1043,-0.089,-0.0959,-0.0912,-0.0736,-0.0605,-0.0567,-0.0533,-0.0516,-0.0483,-0.0893,-0.0893,-0.0893,0,-0.0833,-0.0887,-0.0895,-0.0952,-0.0992,-0.0984,-0.1081,-0.1082,-0.106,-0.1195,-0.1183,-0.1224,-0.1266,-0.1221,-0.121,-0.1258,-0.1075,-0.1183,-0.1166,-0.112,-0.099,-0.0946,-0.0908,-0.1402,-0.1403,-0.1405,0,0,-0.0879,-0.0899,-0.0975,-0.097,-0.0989,-0.1065,-0.1083,-0.1123,-0.1167,-0.1188,-0.1254,-0.1291,-0.1295,-0.1304,-0.133,-0.1291,-0.1279,-0.1241,-0.1217,-0.1197,-0.1142,-0.1006,-0.0965,-0.141,-0.141,-0.141,0,0,-0.0895,-0.0987,-0.1032,-0.1038,-0.1072,-0.1149,-0.1147,-0.1196,-0.1233,-0.1239,-0.1344,-0.1362,-0.1335,-0.1384,-0.1441,-0.1348,-0.1448,-0.1439,-0.1318,-0.1289,-0.1266,-0.1195,-0.1559,0,0,0,0,0,-0.0992,-0.0974,-0.1013,-0.1025,-0.1111,-0.1129,-0.1141,-0.1215,-0.1261,-0.1249,-0.1304,-0.1385,-0.1415,-0.1469,-0.1484,-0.1413,-0.1477,-0.1465,-0.1454,-0.1289,-0.1258,-0.1232,0,0,0,0,0,0,-0.0997,-0.1011,-0.1014,-0.1088,-0.1108,-0.1131,-0.1218,-0.1238,-0.1263,-0.1274,-0.137,-0.1388,-0.1458,-0.1469,-0.1481,-0.141,-0.1555,-0.1472,-0.1462,-0.1453,-0.1279,-0.1253,-0.1231,0,0,0,0,0,-0.1001,-0.1013,-0.113,-0.109,-0.1107,-0.1198,-0.1219,-0.1237,-0.126,-0.1359,-0.1379,-0.1313,-0.1455,-0.1471,-0.1476,-0.1401,-0.1548,-0.1552,-0.1466,-0.1458,-0.1451,-0.1266,0,0,0,0,0,0,-0.1005,-0.1034,-0.1135,-0.1144,-0.1103,-0.1199,-0.1216,-0.1235,-0.1346,-0.1364,-0.1307,-0.1315,-0.1453,-0.1466,-0.1478,-0.1391,-0.1541,-0.1545,-0.1548,-0.146,-0.1453,-0.1448,0,0,0,0,0,0,-0.1028,-0.104,-0.114,-0.1152,-0.1163,-0.1198,-0.1213,-0.125,-0.1347,-0.1289,-0.1298,-0.1309,-0.1438,-0.1462,-0.1472,-0.1526,-0.1536,-0.154,-0.1543,-0.1545,-0.1455,-0.145,0,0,0,0,0,0,-0.1035,-0.1045,-0.1151,-0.1159,-0.1168,-0.1268,-0.1233,-0.132,-0.1348,-0.1283,-0.1353,-0.1355,-0.1432,-0.1444,-0.1467,-0.1517,-0.1524,-0.1537,-0.1539,-0.1541,-0.1543,0,0,0,0,0,0,0,-0.104,-0.0951,-0.1084,-0.1164,-0.1173,-0.1219,-0.1221,-0.1224,-0.1348,-0.135,-0.1352,-0.1354,-0.1513,-0.1518,-0.1522,-0.1509,0,0,-0.1536,-0.1538,0,0,0,0,0,0,0,0,-0.0949,-0.0951,-0.1084,-0.1086,-0.1087,-0.1219,-0.1221,-0.1223,-0.1348,-0.135,-0.1352,-0.1353,-0.1514,-0.1518,-0.1522,0,0,0,0,0,0,0,0,0,0,0,0,0,0,0,-0.1084,-0.1085,0,-0.1219,-0.1221,-0.1223,-0.1349,-0.135,-0.1351,-0.1353,-0.1515,-0.1518,-0.1521,0,0,0,0,0,0,0,0,0,0,0,0,0,0,0,0,0,0,0,0,0,0,0,0,0,0,0,0,0,0,0,0,0,0,0,0,0,0,0,0,0,0,0,0,0,0,0,0,0,0,0,0,0,0,0,0,0,0,0,0,0,0,0,0,0,0,0,0,0]}]],[[{"header":{"parameterUnit":"kt","parameterCategory":2,"dx":1,"dy":1,"la1":30.253999710083008,"la2":30.299108505249023,"lo1":-89.0895004272461,"lo2":-89.04439544677734,"nx":28,"ny":28,"refTime":"2022-10-13T21:00:00:Z","depth":"2","parameterNumber":2,"parameterNumberName":"U-component_of_CURRENTS"},"data":[0.4697,0.458,0.4499,0.4527,0.4746,0.4799,0.4845,0.4651,0.4546,0.4269,0.415,0.4348,0.4607,0.3915,0.3901,0.3682,0.4089,0.3538,0.4958,0.513,0.5228,0.5563,0.5149,0,0,0,0,0,0.471,0.4703,0.468,0.4772,0.4812,0.5056,0.5152,0.5107,0.5149,0.5295,0.5378,0.4903,0.473,0.4876,0.4608,0.4579,0.4611,0.4418,0.4467,0.4587,0.4693,0.4338,0.3523,0.3517,0.3512,0.3506,0,0,0.4708,0.4715,0.4695,0.4862,0.4974,0.5085,0.5172,0.5391,0.5609,0.5905,0.6236,0.6225,0.6339,0.5906,0.5746,0.5692,0.6128,0.5897,0.5943,0.6002,0.5711,0.5543,0.526,0.5267,0.5272,0.5277,0.5282,0,0.4671,0.471,0.4781,0.4843,0.5007,0.519,0.5496,0.5638,0.6134,0.6421,0.6769,0.6956,0.7135,0.6889,0.6785,0.6673,0.6956,0.6646,0.7608,0.6376,0.6228,0.6099,0.612,0.612,0.6132,0.614,0.6147,0.6152,0.4701,0.4703,0.4815,0.4873,0.5015,0.5311,0.5478,0.5895,0.613,0.6786,0.6951,0.7415,0.7536,0.7703,0.7602,0.7545,0.7658,0.6933,0.6698,0.7419,0.7289,0.7265,0.7241,0.6278,0.6262,0.6249,0.6238,0,0.469,0.4721,0.4801,0.4999,0.5093,0.5308,0.5682,0.5911,0.6354,0.6746,0.6973,0.7468,0.7755,0.7888,0.8133,0.7919,0.795,0.7759,0.7234,0.7054,0.7319,0.7281,0.7537,0.7525,0.7516,0.7508,0.7501,0,0.4683,0.4765,0.4936,0.4958,0.5147,0.5367,0.5653,0.5911,0.6331,0.6617,0.7006,0.7297,0.765,0.7828,0.7859,0.7791,0.804,0.7584,0.7475,0.7032,0.6952,0.7632,0.7587,0.7988,0.7985,0.7983,0.7981,0,0.4772,0.4892,0.4916,0.4966,0.5164,0.5331,0.5471,0.584,0.6032,0.658,0.6823,0.7228,0.7502,0.762,0.772,0.7663,0.7983,0.7855,0.7432,0.7403,0.6997,0.6913,0.7979,0.7978,0.7978,0.7977,0.7976,0,0.4886,0.4894,0.4974,0.5116,0.5169,0.5297,0.5556,0.5698,0.61,0.6293,0.6608,0.6814,0.723,0.7084,0.7442,0.7326,0.7308,0.7367,0.7372,0.6989,0.6689,0.6434,0.6577,0.7304,0.7298,0.7293,0.7288,0,0.4892,0.4953,0.4979,0.5075,0.5117,0.5237,0.5371,0.5583,0.5744,0.6035,0.6245,0.6542,0.6496,0.6711,0.6819,0.7024,0.7109,0.6919,0.7009,0.7016,0.6614,0.6847,0.6339,0.6525,0.7219,0.7227,0.7232,0,0.4896,0.496,0.497,0.5039,0.5106,0.5172,0.5299,0.5453,0.566,0.5802,0.6072,0.6252,0.6418,0.6479,0.6559,0.6704,0.6981,0.6642,0.6641,0.6737,0.7208,0.68,0.6807,0.6867,0.6876,0.6883,0.7177,0,0.4893,0.4929,0.494,0.5049,0.5103,0.513,0.5277,0.538,0.5462,0.5592,0.5841,0.5923,0.6102,0.6135,0.6157,0.6444,0.6402,0.627,0.6177,0.6386,0.6478,0.6522,0.5956,0.5953,0.595,0.5948,0,0,0.4873,0.4876,0.4945,0.5008,0.5049,0.5133,0.52,0.5267,0.5397,0.5509,0.549,0.5734,0.5742,0.5948,0.6069,0.599,0.6035,0.6014,0.6262,0.6297,0.633,0.643,0.6475,0.5943,0.5942,0.5941,0.594,0,0.4838,0.4869,0.4931,0.4992,0.511,0.5125,0.5167,0.5281,0.5351,0.5434,0.5506,0.5654,0.5627,0.5742,0.5766,0.593,0.5892,0.5923,0.615,0.6231,0.627,0.6304,0.6411,0.6453,0.5933,0.5933,0.5933,0,0.4858,0.4894,0.4953,0.5016,0.508,0.5142,0.5186,0.5254,0.533,0.5309,0.5407,0.5458,0.5465,0.555,0.5586,0.5532,0.5767,0.563,0.5646,0.5754,0.5836,0.5881,0.592,0.5411,0.541,0.5408,0,0,0.4857,0.4896,0.5018,0.5039,0.5084,0.517,0.5194,0.5261,0.5306,0.5321,0.5347,0.5392,0.5434,0.5449,0.5461,0.5491,0.5531,0.5568,0.5592,0.5613,0.5729,0.5818,0.586,0.5402,0.5402,0.5402,0,0,0.4864,0.4998,0.5082,0.5096,0.5175,0.5218,0.5219,0.5278,0.5299,0.5342,0.5323,0.5323,0.5409,0.5367,0.5295,0.5456,0.5356,0.5367,0.5473,0.5502,0.5526,0.567,0.5227,0,0,0,0,0,0.5017,0.4989,0.5067,0.509,0.5167,0.5198,0.5201,0.5257,0.5312,0.5301,0.5351,0.5302,0.5365,0.5298,0.5281,0.5377,0.5324,0.5338,0.5351,0.5496,0.5528,0.5556,0,0,0,0,0,0,0.5026,0.5051,0.5068,0.512,0.5141,0.5196,0.5243,0.5253,0.5314,0.5323,0.53,0.5299,0.5268,0.53,0.5286,0.5381,0.5232,0.533,0.5342,0.5352,0.5507,0.5534,0.5556,0,0,0,0,0,0.5034,0.5054,0.518,0.5117,0.5135,0.5216,0.5244,0.5253,0.5285,0.5274,0.5275,0.5344,0.5266,0.5257,0.5291,0.539,0.524,0.5236,0.5337,0.5347,0.5355,0.552,0,0,0,0,0,0,0.504,0.5004,0.5182,0.5189,0.5157,0.5212,0.5226,0.5253,0.523,0.5238,0.5311,0.5317,0.5263,0.5257,0.525,0.5402,0.5248,0.5243,0.524,0.5344,0.5352,0.5358,0,0,0,0,0,0,0.4997,0.5008,0.5184,0.5231,0.5242,0.5209,0.5222,0.5162,0.5226,0.526,0.527,0.5314,0.5286,0.5256,0.5251,0.5152,0.5253,0.5248,0.5245,0.5243,0.535,0.5356,0,0,0,0,0,0,0.5002,0.5011,0.5228,0.5236,0.5245,0.5292,0.5151,0.5219,0.53,0.5256,0.5311,0.5316,0.5285,0.5279,0.5251,0.5153,0.5152,0.5253,0.525,0.5248,0.5246,0,0,0,0,0,0,0,0.5005,0.4941,0.518,0.5239,0.5247,0.525,0.5248,0.5246,0.5301,0.5306,0.531,0.5314,0.5279,0.5274,0.5269,0.5155,0,0,0.5253,0.5251,0,0,0,0,0,0,0,0,0.4937,0.494,0.5181,0.5184,0.5187,0.5249,0.5248,0.5247,0.5302,0.5306,0.5309,0.5312,0.5278,0.5274,0.527,0,0,0,0,0,0,0,0,0,0,0,0,0,0,0,0.5181,0.5184,0,0.5249,0.5248,0.5247,0.5303,0.5305,0.5308,0.5311,0.5277,0.5273,0.527,0,0,0,0,0,0,0,0,0,0,0,0,0,0,0,0,0,0,0,0,0,0,0,0,0,0,0,0,0,0,0,0,0,0,0,0,0,0,0,0,0,0,0,0,0,0,0,0,0,0,0,0,0,0,0,0,0,0,0,0,0,0,0,0,0,0,0,0,0]}],[{"header":{"parameterUnit":"kt","parameterCategory":2,"dx":1,"dy":1,"la1":30.253999710083008,"la2":30.299108505249023,"lo1":-89.0895004272461,"lo2":-89.04439544677734,"nx":28,"ny":28,"refTime":"2022-10-13T21:00:00:Z","depth":"2","parameterNumber":3,"parameterNumberName":"V-component_of_CURRENTS"},"data":[0.1398,0.1651,0.1821,0.2235,0.2393,0.2686,0.2892,0.3136,0.3243,0.3297,0.3135,0.2856,0.2045,0.129,0.0535,0.0006,-0.0064,-0.0106,-0.0022,0.0237,0.0259,-0.0254,-0.0266,0,0,0,0,0,0.1346,0.1499,0.1755,0.2031,0.2271,0.2335,0.2673,0.284,0.3172,0.3231,0.3307,0.2633,0.1967,0.1253,0.0231,-0.0376,-0.0385,-0.0552,-0.042,-0.0405,-0.0392,-0.0412,-0.0537,-0.0539,-0.054,-0.0541,0,0,0.1274,0.1379,0.159,0.182,0.2024,0.228,0.2448,0.2641,0.2891,0.308,0.3092,0.2983,0.2339,0.1168,0.0594,-0.0079,-0.0108,-0.0381,-0.037,-0.0359,-0.0382,-0.0395,-0.0498,-0.0498,-0.0498,-0.0499,-0.0499,0,0.1215,0.1287,0.1411,0.1664,0.1832,0.2004,0.2165,0.2303,0.2414,0.2565,0.2787,0.2757,0.2187,0.1618,0.0762,0.0388,0.0053,-0.0099,0.002,-0.0137,-0.0139,-0.0188,-0.0185,-0.0191,-0.019,-0.0189,-0.0188,-0.0188,0.1122,0.1213,0.1406,0.153,0.1593,0.1718,0.1845,0.1883,0.1994,0.2163,0.227,0.2127,0.2048,0.1513,0.09,0.0338,0.0247,-0.0038,-0.0229,-0.0177,-0.023,-0.0227,-0.0226,-0.0174,-0.0175,-0.0177,-0.0178,0,0.1092,0.117,0.13,0.1425,0.1471,0.1551,0.168,0.1775,0.1772,0.1926,0.1924,0.1823,0.1639,0.1251,0.0908,0.057,0.027,0.0097,0.0163,0.011,-0.0203,-0.0206,-0.0226,-0.0231,-0.0234,-0.0238,-0.024,0,0.1067,0.1129,0.1227,0.1285,0.1425,0.1397,0.1525,0.1499,0.1533,0.1646,0.1432,0.1516,0.1133,0.1004,0.069,0.037,0.0481,-0.0033,-0.0089,-0.0048,-0.0058,0.0005,-0.0002,0.0072,0.0073,0.0073,0.0073,0,0.0976,0.1052,0.1181,0.1188,0.1246,0.1275,0.1304,0.1268,0.1302,0.1241,0.1271,0.1122,0.107,0.0852,0.0539,0.0467,0.0355,0.0231,-0.0071,-0.0081,-0.007,-0.0082,0.0073,0.0073,0.0073,0.0073,0.0073,0,0.0886,0.0945,0.1071,0.1114,0.1131,0.1166,0.1189,0.119,0.112,0.1062,0.0977,0.0855,0.0744,0.0563,0.0379,0.0392,0.0188,0.0053,0.0049,-0.0078,-0.0179,-0.0135,-0.0126,-0.004,-0.004,-0.0041,-0.0041,0,0.0806,0.0892,0.0873,0.0949,0.0992,0.0911,0.0934,0.0878,0.0814,0.0795,0.062,0.0574,0.0375,0.0327,0.0239,0.0104,0.0025,0.0018,-0.0064,-0.0066,-0.0147,-0.0142,-0.0105,-0.013,-0.0048,-0.0047,-0.0046,0,0.0704,0.0721,0.0718,0.0731,0.07,0.0712,0.0706,0.0689,0.0702,0.0559,0.0581,0.0373,0.0288,0.0229,0.0095,0.0033,0.0006,-0.0055,-0.0058,-0.0033,-0.0016,-0.0138,-0.0145,-0.0033,-0.0031,-0.003,-0.0052,0,0.0633,0.0625,0.065,0.0615,0.0611,0.0643,0.0572,0.053,0.0466,0.0409,0.033,0.0176,0.0099,0.0017,-0.0081,-0.0102,-0.0124,-0.0168,-0.0169,-0.0153,-0.0173,-0.0168,-0.024,-0.0242,-0.0243,-0.0244,0,0,0.0528,0.0539,0.0452,0.0459,0.0467,0.0379,0.043,0.0378,0.0299,0.0273,0.0205,0.0059,-0.005,-0.0095,-0.014,-0.0197,-0.0206,-0.0172,-0.0181,-0.0174,-0.0168,-0.0183,-0.0177,-0.0246,-0.0246,-0.0247,-0.0247,0,0.0502,0.0426,0.0439,0.0404,0.0361,0.0344,0.0347,0.0296,0.0255,0.0203,0.0113,0.0022,-0.0073,-0.0145,-0.019,-0.021,-0.023,-0.0247,-0.0175,-0.0191,-0.0183,-0.0175,-0.0189,-0.0183,-0.025,-0.025,-0.0249,0,0.0415,0.0369,0.0353,0.0296,0.027,0.0288,0.0216,0.0219,0.0217,0.0103,0.0073,-0.0022,-0.0112,-0.0172,-0.0203,-0.0213,-0.0246,-0.0262,-0.0259,-0.0213,-0.0229,-0.022,-0.0213,-0.0303,-0.0303,-0.0302,0,0,0.0382,0.0353,0.0292,0.0284,0.0276,0.0223,0.0216,0.0182,0.0136,0.0111,0.0043,-0.0035,-0.0101,-0.0139,-0.0201,-0.0245,-0.025,-0.0263,-0.0261,-0.0258,-0.0212,-0.0227,-0.022,-0.0301,-0.0301,-0.0301,0,0,0.0382,0.0307,0.0244,0.0241,0.0204,0.0173,0.0188,0.0148,0.0093,0.0081,0.0,-0.0021,-0.0081,-0.013,-0.0105,-0.0202,-0.022,-0.0226,-0.0152,-0.015,-0.0148,-0.0074,-0.0144,0,0,0,0,0,0.0294,0.0315,0.0258,0.0248,0.0188,0.0185,0.0179,0.0138,0.0114,0.0115,0.0038,0.0011,-0.0145,-0.0124,-0.0138,-0.0142,-0.0283,-0.0286,-0.0289,-0.0205,-0.0202,-0.02,0,0,0,0,0,0,0.029,0.0277,0.0259,0.0225,0.0212,0.0184,0.0137,0.0126,0.0113,0.0105,0.0025,0.0009,-0.0045,-0.012,-0.0132,-0.0134,-0.014,-0.0284,-0.0287,-0.029,-0.0204,-0.0202,-0.02,0,0,0,0,0,0.0287,0.0277,0.0183,0.0225,0.0214,0.0166,0.0136,0.0126,0.0109,0.0036,0.002,0.008,-0.0042,-0.0058,-0.0127,-0.0127,-0.0132,-0.0136,-0.0286,-0.0288,-0.029,-0.0203,0,0,0,0,0,0,0.0285,0.0267,0.0181,0.0177,0.0215,0.0166,0.0154,0.0126,0.0038,0.0025,0.0086,0.0082,-0.0041,-0.0053,-0.0065,-0.0122,-0.0125,-0.0129,-0.0132,-0.0288,-0.0289,-0.0291,0,0,0,0,0,0,0.0273,0.0264,0.0179,0.0167,0.0162,0.0167,0.0156,0.0115,0.0036,0.0091,0.0086,0.0085,-0.0037,-0.005,-0.0059,-0.012,-0.012,-0.0124,-0.0127,-0.0129,-0.0289,-0.029,0,0,0,0,0,0,0.0269,0.0261,0.0168,0.0164,0.0159,0.0112,0.0128,0.0057,0.0063,0.0094,0.0059,0.0057,-0.0033,-0.0043,-0.0055,-0.0111,-0.0117,-0.012,-0.0123,-0.0125,-0.0126,0,0,0,0,0,0,0,0.0266,0.0321,0.0207,0.016,0.0156,0.0145,0.0144,0.0143,0.0062,0.0061,0.0059,0.0058,-0.0096,-0.01,-0.0105,-0.0103,0,0,-0.012,-0.0122,0,0,0,0,0,0,0,0,0.0324,0.0322,0.0207,0.0206,0.0206,0.0145,0.0144,0.0143,0.0062,0.0061,0.0059,0.0058,-0.0097,-0.0101,-0.0104,0,0,0,0,0,0,0,0,0,0,0,0,0,0,0,0.0207,0.0206,0,0.0145,0.0144,0.0143,0.0062,0.0061,0.006,0.0059,-0.0098,-0.0101,-0.0104,0,0,0,0,0,0,0,0,0,0,0,0,0,0,0,0,0,0,0,0,0,0,0,0,0,0,0,0,0,0,0,0,0,0,0,0,0,0,0,0,0,0,0,0,0,0,0,0,0,0,0,0,0,0,0,0,0,0,0,0,0,0,0,0,0,0,0,0,0]}]],[[{"header":{"parameterUnit":"kt","parameterCategory":2,"dx":1,"dy":1,"la1":30.253999710083008,"la2":30.299108505249023,"lo1":-89.0895004272461,"lo2":-89.04439544677734,"nx":28,"ny":28,"refTime":"2022-10-13T21:00:00:Z","depth":"4","parameterNumber":2,"parameterNumberName":"U-component_of_CURRENTS"},"data":[0.1192,0.1292,0.1366,0.1375,0.1404,0.1546,0.1697,0.1926,0.1985,0.2315,0.2433,0.267,0.2876,0.3043,0.3083,0.3123,0.3025,0.3509,0.3501,0.3475,0.3495,0.3512,0.336,0,0,0,0,0,0.127,0.1335,0.1421,0.1553,0.1676,0.1774,0.2019,0.2178,0.2497,0.2547,0.2728,0.2898,0.3052,0.3194,0.3158,0.3389,0.347,0.3323,0.3282,0.3487,0.3509,0.3354,0,0,0,0,0,0,0.1385,0.1446,0.1605,0.1722,0.1865,0.1962,0.2119,0.2282,0.2455,0.2867,0.2898,0.3222,0.3459,0.3487,0.3548,0.3565,0.3485,0.3316,0.3345,0.3367,0.3216,0.304,0.3,0,0,0,0,0,0.1484,0.1613,0.1728,0.1876,0.2022,0.2168,0.2377,0.2449,0.2767,0.3023,0.3196,0.3321,0.3503,0.3578,0.3682,0.3682,0.3768,0.3742,0.375,0.3605,0.3501,0.3529,0.3529,0.3589,0.3592,0.3594,0.3595,0,0.1594,0.1658,0.1929,0.2,0.212,0.2327,0.2444,0.2735,0.2846,0.3217,0.3281,0.3566,0.371,0.3718,0.3833,0.387,0.384,0.3799,0.3644,0.3534,0.3559,0.3553,0.3546,0.3612,0.361,0.3609,0.3608,0,0.1663,0.1788,0.1926,0.2167,0.2249,0.2378,0.265,0.2763,0.3022,0.3219,0.3322,0.3582,0.373,0.3851,0.3969,0.3845,0.3853,0.3835,0.3944,0.3983,0.3585,0.3571,0.364,0.3634,0.3628,0.3624,0.362,0,0.1765,0.1858,0.2056,0.2124,0.2278,0.2444,0.263,0.2789,0.3017,0.3158,0.3379,0.3499,0.365,0.3768,0.3768,0.3751,0.3918,0.3644,0.3674,0.38,0.3787,0.3767,0.3748,0.3919,0.3918,0.3917,0.3916,0,0.1788,0.1961,0.2059,0.2125,0.2325,0.2438,0.2573,0.2781,0.2904,0.3166,0.3294,0.3448,0.3585,0.3646,0.3703,0.3661,0.3818,0.3804,0.3668,0.3655,0.3754,0.3737,0.3915,0.3915,0.3914,0.3914,0.3914,0,0.185,0.1939,0.2057,0.2236,0.2294,0.2386,0.2612,0.2724,0.2939,0.3053,0.3214,0.332,0.3441,0.3418,0.3551,0.3506,0.3563,0.3581,0.359,0.3347,0.3358,0.3521,0.3679,0.3677,0.3675,0.3673,0.3671,0,0.1854,0.1965,0.2037,0.2167,0.2252,0.2392,0.2496,0.264,0.2774,0.2936,0.3051,0.321,0.318,0.3284,0.3332,0.3398,0.3465,0.3379,0.3534,0.3536,0.3335,0.3433,0.3513,0.3642,0.3645,0.3648,0.365,0,0.184,0.1981,0.2008,0.2095,0.2252,0.2314,0.2434,0.2583,0.2698,0.2818,0.2971,0.3071,0.3149,0.3186,0.3243,0.3289,0.3421,0.3284,0.3288,0.332,0.363,0.3423,0.3421,0.3498,0.3501,0.3503,0.363,0,0.1887,0.1972,0.2001,0.2136,0.221,0.2287,0.2404,0.2506,0.2616,0.2698,0.2867,0.2936,0.3061,0.3102,0.3092,0.3226,0.3214,0.3239,0.3186,0.3282,0.3323,0.334,0.3112,0.311,0.3108,0.3107,0,0,0.1891,0.1956,0.2038,0.2107,0.2176,0.2284,0.2357,0.2434,0.256,0.2636,0.2643,0.285,0.2895,0.3018,0.3034,0.3082,0.3117,0.3043,0.3229,0.3243,0.3256,0.33,0.3318,0.3103,0.3103,0.3102,0.3102,0,0.1892,0.1984,0.2024,0.2099,0.2214,0.2268,0.2309,0.2423,0.2493,0.2606,0.2649,0.2746,0.2855,0.2895,0.293,0.305,0.306,0.309,0.3101,0.3212,0.3229,0.3243,0.329,0.3307,0.3097,0.3097,0.3098,0,0.1926,0.1986,0.2012,0.2117,0.2192,0.2256,0.2296,0.2373,0.2438,0.2467,0.2587,0.2648,0.2693,0.2787,0.2836,0.2806,0.2993,0.2938,0.2947,0.2887,0.2997,0.3015,0.3032,0.2814,0.2814,0.2813,0,0,0.1947,0.1993,0.2085,0.2125,0.2174,0.227,0.2314,0.2359,0.2424,0.2465,0.2526,0.2591,0.2656,0.2698,0.2744,0.2844,0.2845,0.2906,0.2919,0.293,0.2878,0.2988,0.3007,0.281,0.281,0.281,0,0,0.1932,0.2023,0.2083,0.2128,0.2201,0.2261,0.23,0.2361,0.2445,0.2469,0.2501,0.2513,0.2619,0.2625,0.2585,0.2743,0.2684,0.2694,0.2751,0.2768,0.2781,0.2702,0.2554,0,0,0,0,0,0.1997,0.2012,0.2068,0.2086,0.2198,0.2253,0.227,0.2317,0.2367,0.2401,0.246,0.246,0.2593,0.2557,0.2576,0.2659,0.2775,0.2781,0.2787,0.2884,0.2901,0.2916,0,0,0,0,0,0,0.2004,0.2025,0.2066,0.2126,0.2151,0.2252,0.2259,0.2274,0.2362,0.2367,0.2451,0.246,0.2455,0.2549,0.2566,0.2645,0.2549,0.2777,0.2783,0.2787,0.289,0.2904,0.2916,0,0,0,0,0,0.201,0.2027,0.2192,0.2126,0.2148,0.2218,0.2258,0.2271,0.2362,0.2377,0.2391,0.2397,0.2455,0.2472,0.2559,0.2637,0.2538,0.2544,0.2781,0.2785,0.2789,0.2897,0,0,0,0,0,0,0.2014,0.2053,0.2198,0.2207,0.2109,0.2214,0.2232,0.2267,0.2369,0.2382,0.2315,0.2317,0.2455,0.2468,0.2481,0.2635,0.2528,0.2535,0.2538,0.2784,0.2787,0.279,0,0,0,0,0,0,0.2043,0.206,0.2203,0.2178,0.2185,0.221,0.2226,0.2293,0.2369,0.2303,0.2307,0.2314,0.2425,0.2466,0.2476,0.258,0.2521,0.2527,0.2531,0.2534,0.2787,0.2789,0,0,0,0,0,0,0.2051,0.2066,0.2177,0.2182,0.2188,0.2296,0.2271,0.2381,0.2355,0.2298,0.2352,0.235,0.2422,0.2434,0.2473,0.2572,0.2578,0.2521,0.2526,0.2528,0.253,0,0,0,0,0,0,0,0.2058,0.1947,0.2138,0.2185,0.2191,0.2286,0.2289,0.2292,0.2354,0.2353,0.2352,0.2351,0.2487,0.2494,0.25,0.2566,0,0,0.2521,0.2524,0,0,0,0,0,0,0,0,0.1942,0.1946,0.2138,0.214,0.2141,0.2286,0.2289,0.2292,0.2354,0.2353,0.2352,0.2351,0.2489,0.2494,0.25,0,0,0,0,0,0,0,0,0,0,0,0,0,0,0,0.2138,0.2139,0,0.2287,0.2289,0.2291,0.2354,0.2353,0.2352,0.2352,0.2491,0.2495,0.2499,0,0,0,0,0,0,0,0,0,0,0,0,0,0,0,0,0,0,0,0,0,0,0,0,0,0,0,0,0,0,0,0,0,0,0,0,0,0,0,0,0,0,0,0,0,0,0,0,0,0,0,0,0,0,0,0,0,0,0,0,0,0,0,0,0,0,0,0,0]}],[{"header":{"parameterUnit":"kt","parameterCategory":2,"dx":1,"dy":1,"la1":30.253999710083008,"la2":30.299108505249023,"lo1":-89.0895004272461,"lo2":-89.04439544677734,"nx":28,"ny":28,"refTime":"2022-10-13T21:00:00:Z","depth":"4","parameterNumber":3,"parameterNumberName":"V-component_of_CURRENTS"},"data":[0.1054,0.1163,0.1234,0.1415,0.1519,0.1706,0.1805,0.1815,0.1747,0.1681,0.1394,0.1244,0.0716,0.0957,0.0191,0.0087,-0.0067,-0.0589,-0.0595,-0.0822,-0.082,-0.0818,-0.0673,0,0,0,0,0,0.1049,0.1123,0.1243,0.1395,0.1545,0.1653,0.1782,0.1817,0.182,0.1716,0.1646,0.1314,0.0777,0.0523,0.0199,0.0057,-0.0398,-0.0331,-0.0513,-0.082,-0.0818,-0.0678,0,0,0,0,0,0,0.1038,0.1102,0.1211,0.1351,0.1504,0.1643,0.1704,0.1722,0.1755,0.1641,0.156,0.1185,0.0941,0.043,0.0067,-0.0265,-0.034,-0.0433,-0.0452,-0.0454,-0.0286,-0.0111,-0.0217,0,0,0,0,0,0.1011,0.1069,0.1146,0.1303,0.1425,0.1554,0.1657,0.1692,0.1688,0.1656,0.1473,0.1177,0.0816,0.0354,-0.002,-0.0378,-0.0638,-0.0743,-0.0744,-0.0707,-0.0612,-0.066,-0.0642,-0.081,-0.081,-0.081,-0.0809,0,0.0967,0.1023,0.1164,0.1235,0.1293,0.1407,0.1484,0.1508,0.1534,0.1433,0.1415,0.1137,0.0932,0.0346,-0.0035,-0.0528,-0.0586,-0.0736,-0.0695,-0.0606,-0.0659,-0.0641,-0.0623,-0.0808,-0.0808,-0.0808,-0.0808,0,0.0943,0.0988,0.1083,0.1167,0.1211,0.1286,0.1377,0.1409,0.137,0.1357,0.1333,0.1085,0.0761,0.0408,-0.0035,-0.0231,-0.0552,-0.0647,-0.049,-0.0552,-0.063,-0.0613,-0.0805,-0.0806,-0.0806,-0.0807,-0.0807,0,0.0909,0.0966,0.1043,0.1084,0.118,0.1173,0.1245,0.1222,0.1186,0.1179,0.1017,0.0939,0.0576,0.0326,0.0062,-0.0263,-0.0315,-0.0461,-0.0534,-0.044,-0.0425,-0.0486,-0.0474,-0.057,-0.0568,-0.0567,-0.0565,0,0.087,0.0927,0.1001,0.1015,0.105,0.1086,0.1104,0.1052,0.1055,0.0953,0.093,0.0705,0.0602,0.0342,0.0051,0.0057,-0.0308,-0.0352,-0.0477,-0.0476,-0.0473,-0.0464,-0.0564,-0.0563,-0.0563,-0.0562,-0.0562,0,0.0827,0.0859,0.0938,0.0971,0.0978,0.1013,0.1007,0.1004,0.0907,0.0857,0.0751,0.0638,0.0479,0.0414,0.0089,0.0157,-0.0013,-0.016,-0.0174,-0.0167,-0.0233,-0.0281,-0.0339,-0.0336,-0.0334,-0.0331,-0.0329,0,0.0773,0.0827,0.0822,0.088,0.0903,0.0863,0.0865,0.0828,0.0773,0.0718,0.0581,0.0515,0.0431,0.0391,0.0267,0.0076,-0.0025,0.0086,-0.0225,-0.0233,-0.0194,-0.0245,-0.0082,-0.0294,-0.0298,-0.0302,-0.0304,0,0.0716,0.0743,0.0745,0.0759,0.0734,0.0747,0.0744,0.0711,0.0702,0.062,0.0579,0.0464,0.0393,0.0343,0.0249,0.0145,0.0022,0.0076,0.0067,0.0004,-0.0243,-0.0207,-0.0225,-0.0067,-0.007,-0.0073,-0.0279,0,0.0681,0.0683,0.0701,0.068,0.0677,0.0699,0.0652,0.0638,0.0597,0.0545,0.0468,0.0366,0.0284,0.0241,0.0196,0.0107,0.0074,0.0021,-0.0,-0.0015,-0.0103,-0.0122,0.0085,0.0084,0.0083,0.0082,0,0,0.0603,0.0617,0.0571,0.0578,0.0576,0.052,0.0547,0.0515,0.0467,0.0441,0.0424,0.028,0.0221,0.0143,0.0146,0.0102,0.0029,0.0125,0.0004,-0.0004,-0.0012,-0.0096,-0.0113,0.0081,0.008,0.008,0.008,0,0.0588,0.0546,0.0562,0.0546,0.0516,0.049,0.0496,0.0459,0.0438,0.0407,0.0338,0.0275,0.0206,0.0146,0.0105,0.0094,0.0019,0.0076,0.013,0.0,-0.0007,-0.0013,-0.0097,-0.0111,0.0078,0.0078,0.0078,0,0.0526,0.0492,0.0496,0.0454,0.0433,0.0438,0.0388,0.0397,0.0396,0.0313,0.0295,0.0229,0.0156,0.0118,0.0098,0.0091,0.0,0.0051,0.0055,0.0083,-0.0053,-0.006,-0.0066,0.0013,0.0013,0.0013,0,0,0.0495,0.0492,0.0443,0.0444,0.0435,0.039,0.0379,0.0367,0.0334,0.0321,0.0273,0.0219,0.0164,0.0142,0.0097,0.0059,-0.0003,0.0047,0.005,0.0053,0.0082,-0.0051,-0.0057,0.0013,0.0013,0.0013,0,0,0.0495,0.0451,0.0415,0.0411,0.0388,0.0352,0.0359,0.0329,0.0296,0.0298,0.0233,0.022,0.0185,0.0148,0.0161,0.0097,0.0079,0.0075,0.0131,0.0134,0.0137,0.0186,0.0132,0,0,0,0,0,0.0442,0.0454,0.042,0.0412,0.0361,0.0354,0.0347,0.0323,0.0304,0.0316,0.0265,0.0243,0.0145,0.0155,0.0141,0.0138,0.002,0.0019,0.0018,0.0079,0.0082,0.0085,0,0,0,0,0,0,0.0439,0.043,0.042,0.0383,0.037,0.0353,0.0323,0.0316,0.0304,0.0304,0.025,0.0241,0.0205,0.016,0.0147,0.0146,0.0136,0.0019,0.0018,0.0018,0.008,0.0083,0.0086,0,0,0,0,0,0.0436,0.0429,0.0356,0.0382,0.0371,0.0336,0.0324,0.0318,0.0311,0.0253,0.0244,0.0298,0.0206,0.0193,0.0152,0.0153,0.0144,0.014,0.0019,0.0018,0.0017,0.0081,0,0,0,0,0,0,0.0434,0.0418,0.0353,0.0348,0.0392,0.0338,0.0331,0.032,0.026,0.0252,0.0297,0.0297,0.0205,0.0196,0.0186,0.0158,0.0151,0.0146,0.0144,0.0018,0.0018,0.0017,0,0,0,0,0,0,0.0421,0.0414,0.035,0.0365,0.0361,0.034,0.0333,0.0284,0.0259,0.0307,0.0305,0.0297,0.0216,0.0197,0.019,0.0114,0.0156,0.0152,0.0149,0.0147,0.0018,0.0017,0,0,0,0,0,0,0.0417,0.0411,0.0366,0.0363,0.036,0.0303,0.0295,0.0241,0.028,0.0309,0.0282,0.0283,0.0218,0.021,0.0192,0.012,0.0115,0.0156,0.0153,0.0151,0.015,0,0,0,0,0,0,0,0.0414,0.0467,0.0383,0.0362,0.0359,0.0303,0.0302,0.03,0.028,0.0281,0.0282,0.0283,0.0181,0.0176,0.0171,0.0124,0,0,0.0156,0.0154,0,0,0,0,0,0,0,0,0.0469,0.0468,0.0383,0.0382,0.0381,0.0303,0.0302,0.0301,0.028,0.0281,0.0282,0.0282,0.018,0.0176,0.0172,0,0,0,0,0,0,0,0,0,0,0,0,0,0,0,0.0383,0.0382,0,0.0303,0.0302,0.0301,0.028,0.0281,0.0281,0.0282,0.0179,0.0176,0.0172,0,0,0,0,0,0,0,0,0,0,0,0,0,0,0,0,0,0,0,0,0,0,0,0,0,0,0,0,0,0,0,0,0,0,0,0,0,0,0,0,0,0,0,0,0,0,0,0,0,0,0,0,0,0,0,0,0,0,0,0,0,0,0,0,0,0,0,0,0]}]]]